CZ-6A DEB, 56614

Orbit data source: Space-Track

CZ-6A DEB, 56614 is space debris in SSO originally from a launch on Fri, 11 Nov 2022 UTC launched from the Taiyaun Space Center, China (TSC). Debris objects in space refer to the collection of defunct objects orbiting the Earth. Examples of debris include non-operational satellites, rocket bodies, and fragments generated from explosions, collisions, or faulty payload assembly.

Loading next visibility...
Identifier
56614, 2022-151AEN
Orbit
SSO
Country
Flag of CNCN / PRC
Related business
Manufacturer
SAST
Mission
Spacecraft
Bus & Motor
Unknown
Mass
Unknown
Launch date (UTC)
2022-11-11 (3 years ago)
Launch vehicle
Unknown
Launch site
Taiyaun Space Center, China (TSC)
Object type
Payload
Rocket body
Debris
Shape & HBR
Unknown shape, 0.1 m
Radar Cross Section
Small (<0.1 m²)

Expand to show TLE details & history
Last TLE update: 1 day ago

TLE from 1 day ago
0 CZ-6A DEB
1 56614U 22151AEN 26129.37032548  .00000150  00000-0  13202-3 0  9992
2 56614  98.8589  95.0988 0116714 162.2674 198.2615 13.96021401154759
Epoch: 2026-05-09T08:53Z
TLE epoch observation values (Epoch: 2026-05-09T08:53:16.121Z)
Latitude
-0.00001°
Longitude
94.5929°
Altitude
991.346 km
Speed
7.315 km/s
True Right ascension
06h 20m 23s
True Declination
0° 00' 00"
Sunlit
Object was in daylight at epoch
Visualization orbit readout
Latitude
Unknown
Longitude
Unknown
Altitude
Unknown
Speed
Unknown
Apparent Right ascension
Unknown
Apparent Declination
Unknown
Sunlit
N/A
Visualization observer readout
Local Sidereal Time
21:27:44
Azimuth
Unknown
Elevation
Unknown
Doppler factor
Unknown
Orbital elements
Apogee altitude
989.804 km
Perigee altitude
819.8 km
Semi-major axis
7,282.939 km
Eccentricity
0.01167
Inclination
98.8589°
RAAN
95.0988°
Arg. of periapsis
162.2674°
True anomaly
197.84814°
Mean anomaly
198.2615°
Eccentric anomaly
198.05425°
Mean motion
3.49207 °/min
Orbital period
103.09 mins
BSTAR
0.00013202
Loading maneuver chart data...
Computing Atmospheric mass density...
Loading historical data...
Loading historical data...
Loading historical data...
Loading historical data...
Loading historical data...
Loading historical data...
Loading historical data...

Documentation

Showing up to 5 results
|